Home   Weather   Alexandria   Past weeks
Flag for Egypt

Past Weather in Alexandria, Egypt — Yesterday and Last 2 Weeks

Now
70 °F

Clear.


Feels Like: 70 °F
Forecast: 78 / 69 °F
Wind: 3 mph from Northeast

Location: Alexandria / Nouzha

Current Time: Oct 21, 2019 at 5:13:11 am

Latest Report: Oct 21, 2019 at 4:00 am


Visibility: 10 mi

Pressure: 29.95 "Hg

Humidity: 88%

Dew Point: 66 °F

Location of AlexandriaLocation

Past Weather in Alexandria — Graph

°F

Alexandria Temperature Yesterday

Maximum temperature yesterday: 86 °F (at 12:00 pm)
Minimum temperature yesterday: 70 °F (at 1:00 am)
Average temperature yesterday: 77 °F

High & Low Weather Summary for the Past Weeks

 TemperatureHumidityPressure
High90 °F (Oct 8, 12:00 pm)94% (Oct 12, 5:00 am)30.07 "Hg (Oct 12, 5:00 am)
Low64 °F (Oct 7, 6:00 am)21% (Oct 14, 8:00 am)29.86 "Hg (Oct 6, 1:00 am)
Average77 °F70%29.98 "Hg
* Reported Oct 6 1:00 am — Oct 21 1:00 am, Alexandria. Weather by CustomWeather, © 2019

Note: Actual official high and low records may vary slightly from our data, if they occured in-between our weather recording intervals... More about our weather records

Advertising

Alexandria Weather History for the Previous 24 Hours

Scroll right to see more
 ConditionsComfort  
Time TempWeatherWind HumidityBarometerVisibility
1:00 am
Mon, Oct 21
72 °FClear.3 mph83%29.98 "Hg10 mi
12:00 am72 °FClear.3 mph83%29.98 "Hg10 mi
11:00 pm
Sun, Oct 20
73 °FClear.3 mph78%29.98 "Hg10 mi
10:00 pm75 °FClear.6 mph74%29.98 "Hg10 mi
9:00 pm75 °FClear.6 mph74%29.98 "Hg10 mi
8:00 pm77 °FClear.7 mph74%29.98 "Hg10 mi
7:00 pm77 °FPassing clouds.7 mph74%29.98 "HgN/A
6:00 pm79 °FPassing clouds.9 mph74%29.95 "HgN/A
5:00 pm81 °FScattered clouds.12 mph70%29.95 "HgN/A
4:00 pm84 °FScattered clouds.10 mph62%29.98 "HgN/A
3:00 pm86 °FScattered clouds.9 mph55%29.98 "HgN/A
1:00 pm86 °FScattered clouds.6 mph49%30.01 "HgN/A
12:00 pm86 °FScattered clouds.7 mph46%30.01 "HgN/A
10:00 am82 °FScattered clouds.6 mph58%30.04 "Hg4 mi
9:00 am79 °FFog.8 mph70%30.04 "Hg1 mi
7:00 am72 °FFog.3 mph83%30.01 "Hg2 mi
6:00 am70 °FFog.5 mph88%30.01 "Hg2 mi
Weather by CustomWeather, © 2019

See weather overview